Location: Newark
(47.5833°N, 8.1500°E)
Time: 05:36:30
(UTC+00:00)

Tiros 1 despin weight - Pass Details

Date: 31 October 2020
Orbit: 593 x 642 km, 48.2° (Epoch: 30 November)

Event Time Altitude Azimuth Distance (km) Brightness Sun altitude
Exits shadow 04:26:18 30° 232° (SW) 1,063 ? -18.0°
Maximum altitude 04:27:01 32° 213° (SSW) 1,021 ? -17.8°
Drops below altitude 10° 04:30:55 10° 149° (SSE) 1,917 ? -17.2°
Sets 04:33:22 0° 140° (SE) 2,817 ? -16.8°
